Thomastown, Minnesota
Current Conditions -  °F | °C
As of 1:13 PM on Saturday 25 Oct 2014 (Local Time) from KSAZ Reporting Station
Clear Clear  
Wind Chill: 55°   Ceiling: Unl
Heat Index: 55°   Visibility: 10mi
Dew Point: 25°   Wind: 17mph
Humidity: 31%   Direction: 310°NW
Pressure: 30.05"   Gusts: 23mph
Location:  46.4671°N, 94.8901°W
Report Text: KSAZ 251813Z AUTO 31015G20KT 10SM CLR 13/M04 A3005 RMK AO2
Loading
Personal Weather Stations






























Interactive Weather Map
Tropical Storm Tracking
New forecast layout! Learn more

10-Day Weather Forecast

Advertisements
Track Severe Weather on mobile